[[{"header":{"parameterUnit":"m.s-1","parameterCategory":2,"la1":30.2991,"la2":30.254,"lo1":-89.0895,"lo2":-89.0444,"dy":0.0017,"dx":0.0017,"nx":28,"ny":28,"refTime":"2023-08-03T09:00:00:Z","depth":"0","parameterNumber":2,"parameterNumberName":"U-component_of_CURRENTS"},"data":[0,0,0,0,0,0,0,0,0,0,0,0,0,0,0,0,0,0,0,0,0,0,0,0,0,0,0,0,0,0,0,0,0,0,0,0,0,0,0,0,0,0,0,0,0,0,0,0,0,0,0,0,0,0,0,0,0,0,0.3123,0.3126,0,0.3245,0.3245,0.3245,0.3197,0.3195,0.3194,0.3192,0.3282,0.3286,0.329,0,0,0,0,0,0,0,0,0,0,0,0,0,0.2869,0.2873,0.3123,0.3126,0.3129,0.3245,0.3245,0.3245,0.3197,0.3195,0.3193,0.3192,0.3281,0.3285,0.329,0,0,0,0,0,0,0,0,0,0,0,0,0,0.297,0.2874,0.3122,0.313,0.3133,0.3245,0.3245,0.3245,0.3197,0.3195,0.3193,0.3191,0.3279,0.3285,0.3291,0.3369,0,0,0.3308,0.331,0,0,0,0,0,0,0,0,0.2964,0.2977,0.3126,0.313,0.3133,0.3217,0.319,0.3291,0.3198,0.3157,0.3192,0.319,0.3269,0.3275,0.3282,0.3373,0.3377,0.3308,0.3312,0.3314,0.3316,0,0,0,0,0,0,0,0.2957,0.2972,0.3156,0.313,0.3134,0.3136,0.3145,0.3207,0.3211,0.316,0.3161,0.3199,0.3268,0.3276,0.3284,0.3379,0.3308,0.3313,0.3317,0.3319,0.3609,0.3613,0,0,0,0,0,0,0.2975,0.2966,0.3152,0.3161,0.3059,0.3143,0.3153,0.318,0.3211,0.3219,0.3201,0.3197,0.3268,0.3277,0.3287,0.3473,0.3314,0.3319,0.3323,0.3604,0.361,0.3614,0,0,0,0,0,0,0.2969,0.299,0.3147,0.3078,0.31,0.3151,0.318,0.3184,0.3183,0.3246,0.3248,0.3198,0.3266,0.3279,0.3358,0.3472,0.3322,0.3327,0.3599,0.3606,0.3612,0.3787,0,0,0,0,0,0,0.296,0.2986,0.3009,0.308,0.3106,0.3206,0.3184,0.3188,0.3219,0.3213,0.3246,0.3251,0.3266,0.3349,0.3363,0.3477,0.3331,0.3594,0.3602,0.361,0.3776,0.3799,0.3818,0,0,0,0,0,0.2951,0.3013,0.3008,0.3032,0.3135,0.3208,0.3219,0.3237,0.3221,0.3225,0.3265,0.325,0.3411,0.3357,0.3373,0.3491,0.359,0.36,0.3609,0.3766,0.3794,0.3818,0,0,0,0,0,0,0.2928,0.3018,0.3013,0.31,0.3141,0.3205,0.325,0.3242,0.3274,0.3274,0.3297,0.3308,0.3429,0.3427,0.3367,0.3597,0.3503,0.3516,0.3617,0.3644,0.3665,0.3727,0.3336,0,0,0,0,0,0.2934,0.2994,0.3059,0.3127,0.3157,0.3193,0.3227,0.3227,0.3278,0.3285,0.3327,0.3388,0.3487,0.353,0.3594,0.3712,0.3709,0.38,0.3821,0.3839,0.3902,0.3965,0.3997,0.3646,0.3646,0.3646,0,0,0.2964,0.301,0.3055,0.3125,0.3168,0.3268,0.3203,0.3262,0.3353,0.3299,0.3435,0.3459,0.3531,0.3674,0.3729,0.3683,0.3934,0.3852,0.3867,0.3921,0.3978,0.4013,0.4043,0.3653,0.3652,0.3651,0,0,0.3089,0.3076,0.319,0.3223,0.3289,0.3309,0.3325,0.3384,0.3409,0.3524,0.3538,0.3643,0.3747,0.3858,0.3923,0.4105,0.404,0.4092,0.4265,0.4324,0.4354,0.438,0.4398,0.4424,0.4108,0.4108,0.4108,0,0.3124,0.324,0.323,0.3343,0.3384,0.3341,0.3451,0.3507,0.3582,0.3619,0.359,0.3803,0.3877,0.409,0.4183,0.4168,0.4137,0.4158,0.4353,0.4378,0.4402,0.4414,0.4441,0.4118,0.4117,0.4116,0.4115,0,0.3347,0.3415,0.3481,0.3601,0.364,0.3701,0.3765,0.3801,0.3811,0.386,0.401,0.4103,0.4218,0.4281,0.4318,0.4533,0.4434,0.4362,0.4284,0.4448,0.445,0.4475,0.4131,0.4128,0.4125,0.4123,0,0,0.3478,0.361,0.3628,0.366,0.3743,0.3777,0.3935,0.4025,0.4077,0.4185,0.4292,0.4548,0.4518,0.4597,0.4624,0.4738,0.4919,0.4641,0.464,0.4656,0.4996,0.487,0.4882,0.4833,0.4839,0.4844,0.492,0,0.3639,0.3825,0.3869,0.401,0.4079,0.4061,0.4184,0.425,0.428,0.4366,0.4495,0.4603,0.4657,0.4682,0.483,0.4894,0.4994,0.4903,0.4841,0.4841,0.4706,0.4913,0.4743,0.4791,0.4943,0.4947,0.495,0,0.3834,0.3907,0.4063,0.4108,0.4139,0.4219,0.4257,0.4361,0.4479,0.4508,0.4637,0.4667,0.4934,0.4881,0.5144,0.5052,0.5074,0.5108,0.5107,0.4961,0.4765,0.4659,0.4829,0.468,0.4987,0.4984,0.4982,0,0.384,0.4013,0.4091,0.4123,0.4222,0.426,0.4299,0.4388,0.4431,0.4568,0.4591,0.4827,0.4917,0.5057,0.5198,0.5147,0.5396,0.53,0.5204,0.519,0.5033,0.4996,0.5062,0.5454,0.5454,0.5454,0.5454,0,0.3928,0.3985,0.4081,0.4113,0.4169,0.424,0.4287,0.4351,0.4439,0.4484,0.4639,0.4713,0.4957,0.5103,0.522,0.5325,0.5411,0.5311,0.5242,0.5083,0.5052,0.4899,0.4812,0.5457,0.5456,0.5456,0.5455,0,0.39,0.3982,0.4051,0.4144,0.4165,0.4184,0.4241,0.4265,0.4362,0.4424,0.4469,0.4666,0.4863,0.5063,0.5277,0.531,0.5282,0.5409,0.5201,0.5109,0.4852,0.478,0.4676,0.4552,0.5335,0.5333,0.5331,0,0.3891,0.3936,0.4021,0.4034,0.4064,0.4105,0.4121,0.4214,0.4233,0.4378,0.4404,0.4596,0.4706,0.4999,0.5138,0.5299,0.5167,0.5158,0.5082,0.4893,0.4763,0.4603,0.4496,0.493,0.4925,0.4921,0.4917,0,0.3854,0.3881,0.3924,0.3945,0.3958,0.3971,0.4002,0.4007,0.4106,0.4166,0.4241,0.4335,0.4599,0.4707,0.4908,0.4995,0.4908,0.5073,0.4956,0.4562,0.4319,0.4142,0.4791,0.4882,0.4885,0.4888,0.489,0.4891,0.3787,0.3781,0.3822,0.3826,0.3834,0.3794,0.3758,0.3805,0.3812,0.3862,0.4042,0.4136,0.4331,0.4605,0.466,0.4609,0.4611,0.4503,0.4464,0.4345,0.4144,0.4709,0.466,0.4662,0.4664,0.4665,0.4667,0,0.3672,0.368,0.3695,0.3665,0.3607,0.366,0.3637,0.358,0.3538,0.3685,0.3757,0.3891,0.3979,0.4134,0.4183,0.4049,0.393,0.3942,0.3712,0.3662,0.4244,0.4145,0.3886,0.3886,0.3886,0.3886,0.3886,0.3887,0.3616,0.3572,0.3577,0.3445,0.3416,0.3278,0.3236,0.3191,0.3255,0.3262,0.3332,0.3472,0.3672,0.3779,0.3686,0.3612,0.3359,0.3203,0.32,0.363,0.368,0.3727,0.3618,0.3253,0.3252,0.2513,0.2507,0.2502]},{"header":{"parameterUnit":"m.s-1","parameterCategory":2,"la1":30.2991,"la2":30.254,"lo1":-89.0895,"lo2":-89.0444,"dy":0.0017,"dx":0.0017,"nx":28,"ny":28,"refTime":"2023-08-03T09:00:00:Z","depth":"0","parameterNumber":3,"parameterNumberName":"V-component_of_CURRENTS"},"data":[0,0,0,0,0,0,0,0,0,0,0,0,0,0,0,0,0,0,0,0,0,0,0,0,0,0,0,0,0,0,0,0,0,0,0,0,0,0,0,0,0,0,0,0,0,0,0,0,0,0,0,0,0,0,0,0,0,0,0.0274,0.0274,0,0.0229,0.0228,0.0227,0.0139,0.0138,0.0137,0.0136,0.0108,0.0109,0.0109,0,0,0,0,0,0,0,0,0,0,0,0,0,0.0186,0.0188,0.0274,0.0274,0.0274,0.0229,0.0228,0.0227,0.0139,0.0138,0.0137,0.0136,0.0108,0.0109,0.0109,0,0,0,0,0,0,0,0,0,0,0,0,0,0.0185,0.0189,0.0274,0.023,0.0226,0.023,0.0228,0.0226,0.014,0.0138,0.0137,0.0135,0.0108,0.0109,0.0109,0.0144,0,0,0.011,0.011,0,0,0,0,0,0,0,0,0.0185,0.0187,0.0236,0.0233,0.0229,0.0194,0.0187,0.0202,0.014,0.0165,0.0136,0.0134,0.0145,0.0142,0.0127,0.0142,0.0141,0.011,0.011,0.0111,0.0111,0,0,0,0,0,0,0,0.0185,0.0188,0.0249,0.0237,0.0232,0.018,0.0178,0.0189,0.0159,0.0163,0.0158,0.0165,0.0141,0.0126,0.0126,0.0141,0.011,0.011,0.0111,0.0111,0.0264,0.0267,0,0,0,0,0,0,0.0213,0.0189,0.025,0.0248,0.0211,0.0184,0.0182,0.0201,0.0159,0.0152,0.0167,0.0161,0.0127,0.0125,0.0124,0.028,0.0111,0.0111,0.0111,0.026,0.0264,0.0269,0,0,0,0,0,0,0.0211,0.0219,0.0252,0.0222,0.0223,0.0189,0.0211,0.0201,0.0187,0.0163,0.0155,0.0163,0.0125,0.0124,0.015,0.0274,0.0111,0.0111,0.0255,0.0261,0.0267,0.0517,0,0,0,0,0,0,0.0209,0.0219,0.0245,0.0225,0.0227,0.0278,0.0213,0.0202,0.0198,0.019,0.0158,0.0153,0.0124,0.0149,0.015,0.0271,0.0112,0.025,0.0258,0.0265,0.0503,0.053,0.0553,0,0,0,0,0,0.0206,0.0269,0.0247,0.0254,0.0263,0.0281,0.0277,0.024,0.02,0.0215,0.0189,0.0154,0.0196,0.0152,0.0152,0.0277,0.0247,0.0256,0.0264,0.0492,0.0525,0.0552,0,0,0,0,0,0,0.0255,0.0266,0.0241,0.0305,0.0298,0.0269,0.0302,0.0253,0.0241,0.0236,0.0186,0.0182,0.0258,0.022,0.0172,0.0339,0.0224,0.0233,0.0398,0.0428,0.0452,0.0538,0.0112,0,0,0,0,0,0.0278,0.0327,0.0309,0.0366,0.0374,0.0332,0.0334,0.0299,0.0286,0.0276,0.0267,0.0265,0.0296,0.0317,0.0325,0.0408,0.034,0.0491,0.0516,0.0537,0.0607,0.0546,0.0572,0.0297,0.0297,0.0297,0,0,0.0321,0.033,0.0362,0.0379,0.0379,0.0442,0.033,0.0352,0.0419,0.0282,0.0385,0.0344,0.033,0.043,0.0464,0.0415,0.058,0.0548,0.0567,0.0626,0.0558,0.0585,0.0608,0.0303,0.0302,0.0301,0,0,0.0463,0.0438,0.0539,0.054,0.0547,0.0523,0.0534,0.0518,0.0528,0.0589,0.0529,0.0571,0.0596,0.0641,0.0658,0.0826,0.07,0.081,0.1028,0.0968,0.0991,0.1009,0.0954,0.0966,0.0837,0.0838,0.0838,0,0.0524,0.0621,0.0568,0.0658,0.0679,0.0577,0.0672,0.0689,0.0684,0.0724,0.0661,0.0746,0.073,0.0881,0.0949,0.0898,0.0807,0.0917,0.1002,0.1019,0.1033,0.0972,0.0982,0.0851,0.0849,0.0848,0.0847,0,0.0741,0.08,0.0862,0.0943,0.0953,0.1008,0.1006,0.1041,0.102,0.1027,0.1138,0.111,0.1156,0.1174,0.1126,0.1257,0.1138,0.1023,0.0928,0.1077,0.1002,0.1008,0.0869,0.0865,0.0861,0.0858,0,0,0.0941,0.1005,0.1031,0.1063,0.1087,0.1108,0.1243,0.1318,0.1385,0.1424,0.1538,0.1636,0.157,0.1589,0.1525,0.1522,0.1556,0.134,0.133,0.1293,0.14,0.1315,0.1311,0.1406,0.1409,0.1411,0.1303,0,0.1134,0.1301,0.13,0.1444,0.1502,0.1452,0.1565,0.1607,0.162,0.1704,0.1738,0.1798,0.1742,0.1732,0.1747,0.161,0.1582,0.1597,0.1259,0.1252,0.1162,0.1321,0.1209,0.1103,0.1308,0.1308,0.1309,0,0.1344,0.1416,0.157,0.1614,0.1645,0.172,0.1792,0.188,0.1973,0.1977,0.2064,0.2027,0.2149,0.198,0.1924,0.1911,0.17,0.157,0.1557,0.1411,0.118,0.0987,0.1103,0.0843,0.1316,0.1315,0.1315,0,0.1421,0.1586,0.1686,0.171,0.178,0.1851,0.1898,0.197,0.2046,0.2135,0.2173,0.2258,0.2279,0.213,0.1957,0.1893,0.1799,0.1645,0.1378,0.1366,0.1187,0.1156,0.1029,0.1527,0.1527,0.1528,0.1528,0,0.1553,0.1635,0.1726,0.1766,0.1895,0.1916,0.2044,0.2086,0.2187,0.2294,0.2307,0.2395,0.2294,0.2241,0.2027,0.1795,0.1848,0.1486,0.1362,0.1269,0.1249,0.0941,0.0844,0.1523,0.1524,0.1525,0.1526,0,0.1563,0.1634,0.1736,0.1856,0.1908,0.1977,0.2112,0.2202,0.2271,0.2409,0.2449,0.2519,0.2454,0.2319,0.2074,0.1871,0.1481,0.148,0.1409,0.1282,0.0802,0.0724,0.0551,0.0457,0.1206,0.1204,0.1202,0,0.1571,0.1629,0.1768,0.184,0.1895,0.2021,0.2115,0.2221,0.2326,0.2488,0.2574,0.2577,0.2604,0.231,0.1929,0.1574,0.1353,0.1192,0.1082,0.0839,0.0658,0.0614,0.0546,0.0922,0.0918,0.0915,0.0912,0,0.1583,0.1621,0.1697,0.1843,0.1956,0.2092,0.2247,0.2347,0.2491,0.261,0.2753,0.2795,0.2521,0.2187,0.1718,0.1433,0.1037,0.1108,0.0859,0.0487,0.0428,0.0253,0.0933,0.0883,0.0886,0.0888,0.089,0.0891,0.1573,0.1618,0.1723,0.1852,0.199,0.2152,0.2265,0.2439,0.2612,0.2805,0.2855,0.2898,0.2399,0.1767,0.1411,0.0635,0.0735,0.0361,0.0303,0.0293,0.0184,0.0839,0.0641,0.0643,0.0644,0.0645,0.0646,0,0.1557,0.1623,0.1745,0.1898,0.2035,0.212,0.2351,0.2479,0.2673,0.2836,0.2952,0.264,0.2017,0.1396,0.039,-0.0094,-0.0222,-0.0328,-0.0439,-0.0459,0.0084,0.0049,-0.0289,-0.0289,-0.0288,-0.0288,-0.0288,-0.0287,0.1558,0.1637,0.1705,0.1908,0.2028,0.222,0.2347,0.2543,0.2705,0.2828,0.2787,0.2747,0.2164,0.0567,-0.0557,-0.0781,-0.1016,-0.109,-0.114,-0.0834,-0.0775,-0.0719,-0.0778,-0.1283,-0.1284,-0.1698,-0.1703,-0.1706]}],[{"header":{"parameterUnit":"m.s-1","parameterCategory":2,"la1":30.2991,"la2":30.254,"lo1":-89.0895,"lo2":-89.0444,"dy":0.0017,"dx":0.0017,"nx":28,"ny":28,"refTime":"2023-08-03T09:00:00:Z","depth":"2","parameterNumber":2,"parameterNumberName":"U-component_of_CURRENTS"},"data":[0,0,0,0,0,0,0,0,0,0,0,0,0,0,0,0,0,0,0,0,0,0,0,0,0,0,0,0,0,0,0,0,0,0,0,0,0,0,0,0,0,0,0,0,0,0,0,0,0,0,0,0,0,0,0,0,0,0,0.2689,0.2688,0,0.2664,0.2665,0.2665,0.2658,0.2657,0.2657,0.2656,0.2775,0.2778,0.2782,0,0,0,0,0,0,0,0,0,0,0,0,0,0.2539,0.2543,0.2689,0.2688,0.2687,0.2664,0.2665,0.2665,0.2658,0.2657,0.2657,0.2656,0.2774,0.2778,0.2782,0,0,0,0,0,0,0,0,0,0,0,0,0,0.2575,0.2545,0.2689,0.2676,0.2674,0.2664,0.2665,0.2665,0.2658,0.2657,0.2657,0.2656,0.2772,0.2778,0.2783,0.283,0,0,0.2799,0.2802,0,0,0,0,0,0,0,0,0.2573,0.2581,0.2679,0.2677,0.2675,0.2658,0.2654,0.2725,0.2658,0.2671,0.2656,0.2656,0.2745,0.2753,0.2757,0.2836,0.2841,0.28,0.2803,0.2805,0.2807,0,0,0,0,0,0,0,0.2571,0.2581,0.2686,0.2678,0.2675,0.2605,0.2612,0.2667,0.272,0.267,0.2668,0.2655,0.2746,0.2752,0.276,0.2843,0.28,0.2804,0.2808,0.281,0.302,0.3022,0,0,0,0,0,0,0.2573,0.2581,0.2686,0.2684,0.2613,0.2609,0.2617,0.2669,0.2716,0.272,0.2655,0.2654,0.2743,0.2754,0.2764,0.2962,0.2805,0.281,0.2814,0.3018,0.302,0.3023,0,0,0,0,0,0,0.2571,0.2585,0.2687,0.2621,0.2629,0.2613,0.2671,0.2669,0.2676,0.2702,0.271,0.2664,0.2743,0.2757,0.282,0.2962,0.2813,0.2818,0.3015,0.3019,0.3022,0.327,0,0,0,0,0,0,0.2568,0.2586,0.2582,0.2625,0.2633,0.2678,0.2671,0.2669,0.2666,0.2665,0.2713,0.2722,0.2743,0.2812,0.2825,0.2966,0.2822,0.3012,0.3016,0.3021,0.3259,0.3282,0.3301,0,0,0,0,0,0.2564,0.2577,0.2584,0.2593,0.2645,0.2678,0.2676,0.2663,0.2667,0.267,0.271,0.2721,0.285,0.2818,0.2833,0.298,0.301,0.3015,0.302,0.3249,0.3277,0.3301,0,0,0,0,0,0,0.2523,0.2578,0.2587,0.2621,0.2641,0.2674,0.2671,0.267,0.2702,0.2721,0.2745,0.2758,0.2877,0.286,0.2823,0.304,0.2935,0.2944,0.3104,0.3131,0.3151,0.3093,0.2826,0,0,0,0,0,0.2511,0.2547,0.2581,0.2617,0.2634,0.2657,0.2655,0.2668,0.2709,0.2721,0.2766,0.2822,0.291,0.2959,0.3008,0.3121,0.3061,0.3217,0.3239,0.3257,0.3214,0.3241,0.3261,0.304,0.304,0.304,0,0,0.252,0.2543,0.257,0.2608,0.2641,0.2714,0.266,0.2697,0.2783,0.2736,0.2869,0.2896,0.2947,0.3087,0.314,0.3097,0.3296,0.3264,0.3281,0.3225,0.3249,0.327,0.3289,0.3044,0.3043,0.3043,0,0,0.2594,0.2582,0.2655,0.2685,0.2721,0.2731,0.2747,0.2802,0.2843,0.2959,0.2966,0.3062,0.3175,0.3257,0.3314,0.3468,0.3399,0.348,0.357,0.3602,0.362,0.3635,0.3626,0.3638,0.3504,0.3504,0.3505,0,0.2594,0.2679,0.2673,0.2765,0.2779,0.2761,0.2846,0.2913,0.2982,0.3021,0.3033,0.3206,0.3286,0.3448,0.3513,0.3536,0.3471,0.3494,0.3633,0.3646,0.3657,0.3643,0.3654,0.3517,0.3515,0.3514,0.3513,0,0.273,0.2795,0.2844,0.2956,0.2984,0.3028,0.3112,0.3155,0.3201,0.3261,0.34,0.3485,0.3564,0.3652,0.3652,0.3779,0.3683,0.3657,0.3578,0.3695,0.3672,0.3679,0.3535,0.353,0.3527,0.3524,0,0,0.2761,0.2897,0.2928,0.2931,0.3057,0.3052,0.3245,0.332,0.3366,0.3512,0.3584,0.3821,0.3792,0.3841,0.3859,0.3906,0.4012,0.3801,0.3797,0.3806,0.4008,0.3833,0.3821,0.3979,0.3981,0.3982,0.3974,0,0.2852,0.296,0.3062,0.3153,0.3168,0.3232,0.3362,0.3452,0.3539,0.3603,0.3743,0.3845,0.3895,0.392,0.3989,0.3953,0.4026,0.401,0.3873,0.3869,0.3713,0.3824,0.3598,0.3558,0.3979,0.398,0.3981,0,0.2924,0.2964,0.3059,0.3098,0.3123,0.3215,0.326,0.3384,0.3547,0.3633,0.3776,0.3834,0.3971,0.3974,0.4052,0.4005,0.4026,0.4022,0.4022,0.3753,0.3704,0.3497,0.3552,0.399,0.3989,0.3988,0.3988,0,0.2747,0.2918,0.2925,0.2961,0.308,0.3143,0.3209,0.3381,0.3459,0.3638,0.3696,0.3846,0.3908,0.3957,0.3984,0.4012,0.3968,0.4039,0.3923,0.391,0.3633,0.3591,0.4118,0.4118,0.4118,0.4118,0.4118,0,0.2673,0.2686,0.283,0.2821,0.2837,0.2988,0.3051,0.3169,0.3347,0.3443,0.3663,0.3743,0.3893,0.3902,0.3936,0.3886,0.3966,0.3921,0.3898,0.3714,0.3681,0.3966,0.3949,0.4117,0.4117,0.4118,0.4118,0,0.247,0.2569,0.2572,0.2705,0.2749,0.2756,0.2957,0.3007,0.3207,0.3334,0.3407,0.3644,0.3708,0.3764,0.382,0.3819,0.38,0.3775,0.3515,0.3462,0.3752,0.3748,0.3715,0.3709,0.3703,0.3699,0.3695,0,0.2373,0.234,0.2449,0.2482,0.2564,0.2634,0.2711,0.2922,0.3023,0.3279,0.3318,0.3458,0.355,0.3511,0.3523,0.3514,0.3643,0.3294,0.3375,0.373,0.3713,0.3717,0.372,0.3135,0.3127,0.312,0.3115,0,0.2197,0.2235,0.2254,0.2321,0.2399,0.2463,0.2603,0.2648,0.2911,0.3018,0.3184,0.327,0.3326,0.3232,0.3175,0.3163,0.3274,0.3164,0.3588,0.3253,0.3177,0.3162,0.3186,0.3057,0.3063,0.3067,0.307,0.3073,0.2097,0.2071,0.2127,0.2175,0.2259,0.2336,0.2366,0.2515,0.262,0.2755,0.2892,0.293,0.2974,0.2827,0.2728,0.2711,0.2985,0.2916,0.2939,0.2969,0.2885,0.2802,0.2594,0.2597,0.26,0.2602,0.2604,0,0.1982,0.1977,0.2001,0.2078,0.2119,0.2228,0.2327,0.2336,0.242,0.2502,0.256,0.2328,0.2277,0.2355,0.2288,0.2297,0.2326,0.22,0.225,0.2308,0.236,0.2248,0.1787,0.1784,0.1782,0.1779,0,0,0.1911,0.1892,0.1899,0.1948,0.2021,0.2069,0.2112,0.2116,0.216,0.2056,0.2044,0.2097,0.2287,0.197,0.1944,0.1882,0.2078,0.1808,0.2471,0.2588,0.2637,0.2783,0.2676,0,0,0,0,0]},{"header":{"parameterUnit":"m.s-1","parameterCategory":2,"la1":30.2991,"la2":30.254,"lo1":-89.0895,"lo2":-89.0444,"dy":0.0017,"dx":0.0017,"nx":28,"ny":28,"refTime":"2023-08-03T09:00:00:Z","depth":"2","parameterNumber":3,"parameterNumberName":"V-component_of_CURRENTS"},"data":[0,0,0,0,0,0,0,0,0,0,0,0,0,0,0,0,0,0,0,0,0,0,0,0,0,0,0,0,0,0,0,0,0,0,0,0,0,0,0,0,0,0,0,0,0,0,0,0,0,0,0,0,0,0,0,0,0,0,-0.0071,-0.0071,0,-0.0164,-0.0165,-0.0167,-0.0239,-0.024,-0.024,-0.024,-0.0304,-0.0306,-0.0307,0,0,0,0,0,0,0,0,0,0,0,0,0,-0.0083,-0.0082,-0.0071,-0.0071,-0.0072,-0.0164,-0.0165,-0.0167,-0.0239,-0.024,-0.024,-0.024,-0.0304,-0.0305,-0.0307,0,0,0,0,0,0,0,0,0,0,0,0,0,-0.0121,-0.0081,-0.0071,-0.0116,-0.012,-0.0163,-0.0165,-0.0168,-0.0239,-0.024,-0.024,-0.024,-0.0303,-0.0305,-0.0307,-0.0312,0,0,-0.0314,-0.0315,0,0,0,0,0,0,0,0,-0.0118,-0.0121,-0.0108,-0.0113,-0.0118,-0.0186,-0.0193,-0.0213,-0.0239,-0.0199,-0.024,-0.0241,-0.0259,-0.0265,-0.0288,-0.0315,-0.0318,-0.0314,-0.0315,-0.0316,-0.0317,0,0,0,0,0,0,0,-0.0115,-0.0118,-0.0112,-0.0109,-0.0115,-0.0175,-0.018,-0.0198,-0.0228,-0.0202,-0.0207,-0.021,-0.0262,-0.0286,-0.029,-0.0319,-0.0314,-0.0316,-0.0317,-0.0318,-0.0324,-0.0323,0,0,0,0,0,0,-0.0087,-0.0114,-0.0109,-0.0115,-0.0114,-0.0173,-0.018,-0.0168,-0.0229,-0.0238,-0.0209,-0.0213,-0.0282,-0.0287,-0.0292,-0.0241,-0.0316,-0.0318,-0.032,-0.0325,-0.0324,-0.0322,0,0,0,0,0,0,-0.0087,-0.0085,-0.0105,-0.0114,-0.012,-0.0171,-0.0159,-0.0169,-0.0186,-0.0234,-0.0243,-0.0214,-0.0283,-0.0289,-0.0304,-0.0246,-0.0319,-0.0321,-0.0326,-0.0325,-0.0323,-0.0176,0,0,0,0,0,0,-0.0087,-0.0084,-0.0081,-0.0111,-0.0119,-0.0122,-0.0158,-0.0171,-0.0186,-0.0191,-0.024,-0.0247,-0.0283,-0.03,-0.0306,-0.025,-0.0323,-0.0328,-0.0326,-0.0323,-0.0183,-0.017,-0.0159,0,0,0,0,0,-0.0087,-0.0082,-0.008,-0.008,-0.0107,-0.0121,-0.0131,-0.0173,-0.0185,-0.0191,-0.0223,-0.0246,-0.029,-0.0301,-0.0308,-0.0252,-0.0329,-0.0326,-0.0324,-0.0188,-0.0172,-0.0159,0,0,0,0,0,0,-0.0089,-0.0089,-0.0088,-0.0083,-0.0092,-0.0131,-0.014,-0.0161,-0.0193,-0.0194,-0.024,-0.0249,-0.0242,-0.0274,-0.0285,-0.025,-0.0309,-0.0308,-0.0204,-0.0189,-0.0178,-0.0257,-0.0325,0,0,0,0,0,-0.0081,-0.0069,-0.0081,-0.007,-0.0069,-0.0097,-0.0112,-0.0132,-0.0157,-0.0173,-0.02,-0.0225,-0.0238,-0.0236,-0.0267,-0.0244,-0.0311,-0.0212,-0.02,-0.0189,-0.0261,-0.0265,-0.026,-0.0314,-0.0314,-0.0314,0,0,-0.0069,-0.0073,-0.0062,-0.0069,-0.0075,-0.007,-0.0108,-0.0112,-0.0108,-0.0171,-0.0171,-0.0194,-0.023,-0.0212,-0.0208,-0.0225,-0.0205,-0.0186,-0.0176,-0.0256,-0.0262,-0.0257,-0.0253,-0.0312,-0.0312,-0.0313,0,0,-0.0048,-0.0042,-0.0029,-0.0022,-0.0027,-0.0049,-0.0041,-0.0062,-0.0073,-0.0066,-0.0111,-0.0101,-0.0119,-0.0131,-0.0137,-0.0079,-0.0154,-0.0077,-0.0062,-0.006,-0.0057,-0.0054,-0.0112,-0.0117,-0.0052,-0.0052,-0.0052,0,-0.0044,-0.0036,-0.0029,-0.0009,-0.0004,-0.0028,-0.0013,-0.0022,-0.0046,-0.0062,-0.0046,-0.01,-0.0077,-0.0097,-0.0063,-0.0047,-0.0109,-0.0098,-0.0044,-0.0044,-0.0044,-0.0105,-0.0111,-0.0045,-0.0045,-0.0046,-0.0047,0,-0.0029,-0.0005,0.0008,0.0027,0.0049,0.0044,0.0059,0.0054,0.0053,0.0031,0.0009,0.001,-0.0026,0.0017,0.0003,0.0005,-0.0059,-0.0033,-0.0077,-0.0029,-0.0096,-0.0106,-0.0034,-0.0037,-0.0039,-0.0041,0,0,-0.0106,-0.0008,-0.0015,0.0004,0.0054,0.0047,0.0099,0.0077,0.0079,0.0062,0.0042,0.0062,0.0029,0.0011,0.0004,0.0008,0.0031,-0.0018,-0.0021,-0.0075,-0.0042,-0.007,-0.0085,0.0059,0.0058,0.0057,-0.0081,0,-0.013,-0.0101,-0.0029,-0.0001,0.001,0.0058,0.0112,0.0117,0.0126,0.0108,0.0071,0.008,0.004,0.0067,0.0043,-0.0033,0.0004,0.0059,-0.0089,-0.0096,-0.0122,-0.0095,-0.006,-0.018,-0.0091,-0.0092,-0.0094,0,-0.0189,-0.0164,-0.012,-0.0031,-0.0017,0.002,0.0055,0.0103,0.0111,0.0153,0.0105,0.0074,-0.001,0.0055,-0.0116,-0.0104,-0.0054,-0.0074,-0.0077,-0.0187,-0.0143,-0.022,-0.0202,-0.0111,-0.0109,-0.0108,-0.0107,0,-0.0322,-0.0255,-0.0236,-0.0204,-0.0079,-0.0046,0.0003,0.008,0.0139,0.0172,0.0224,0.0065,0.0052,-0.0047,-0.0148,-0.011,-0.032,-0.0232,-0.021,-0.0213,-0.0263,-0.0269,-0.0203,-0.0203,-0.0203,-0.0202,-0.0202,0,-0.0408,-0.0398,-0.0307,-0.0286,-0.0238,-0.0123,-0.0053,0.0032,0.0126,0.0207,0.0217,0.0224,0.0045,-0.0105,-0.0193,-0.0346,-0.0349,-0.0261,-0.0252,-0.0208,-0.0208,-0.0218,-0.0218,-0.0207,-0.0206,-0.0205,-0.0204,0,-0.0482,-0.0442,-0.0398,-0.0302,-0.0268,-0.022,-0.0042,0.0022,0.0147,0.0254,0.0289,0.0281,0.012,-0.0099,-0.0246,-0.0344,-0.0482,-0.0442,-0.0433,-0.042,-0.0359,-0.035,-0.0477,-0.0479,-0.0481,-0.0482,-0.0484,0,-0.0495,-0.0487,-0.0397,-0.0338,-0.0272,-0.0194,-0.0086,0.0044,0.0148,0.0287,0.0336,0.026,0.0254,-0.0114,-0.0319,-0.0536,-0.0473,-0.0557,-0.0414,-0.041,-0.0388,-0.0376,-0.0364,-0.042,-0.0421,-0.0421,-0.0422,0,-0.0479,-0.0452,-0.0391,-0.0284,-0.0194,-0.0088,0.0043,0.0119,0.0296,0.0411,0.0525,0.0522,0.026,0.0019,-0.0275,-0.0403,-0.058,-0.0566,-0.0578,-0.0346,-0.0364,-0.034,-0.0329,-0.0427,-0.0426,-0.0426,-0.0425,-0.0425,-0.0436,-0.0385,-0.03,-0.019,-0.0082,0.006,0.0169,0.031,0.0486,0.0701,0.0629,0.0702,0.0392,0.0063,-0.0249,-0.0539,-0.0483,-0.0528,-0.0522,-0.0518,-0.0476,-0.0494,-0.0579,-0.0579,-0.0579,-0.058,-0.058,0,-0.036,-0.0304,-0.0199,-0.0052,0.009,0.0123,0.0312,0.0457,0.0688,0.0826,0.0935,0.0727,0.0491,0.0155,-0.0243,-0.0488,-0.0484,-0.0574,-0.0499,-0.0494,-0.049,-0.0443,-0.054,-0.054,-0.054,-0.0541,0,0,-0.0312,-0.0214,-0.0157,0.0084,0.0198,0.0398,0.0518,0.0739,0.0896,0.1051,0.11,0.1051,0.0645,0.0367,-0.0035,-0.0261,-0.0299,-0.0309,-0.0317,-0.0178,-0.0168,-0.045,-0.0372,0,0,0,0,0]}],[{"header":{"parameterUnit":"m.s-1","parameterCategory":2,"la1":30.2991,"la2":30.254,"lo1":-89.0895,"lo2":-89.0444,"dy":0.0017,"dx":0.0017,"nx":28,"ny":28,"refTime":"2023-08-03T09:00:00:Z","depth":"4","parameterNumber":2,"parameterNumberName":"U-component_of_CURRENTS"},"data":[0,0,0,0,0,0,0,0,0,0,0,0,0,0,0,0,0,0,0,0,0,0,0,0,0,0,0,0,0,0,0,0,0,0,0,0,0,0,0,0,0,0,0,0,0,0,0,0,0,0,0,0,0,0,0,0,0,0,0.1169,0.1169,0,0.1251,0.1252,0.1253,0.1354,0.1355,0.1356,0.1358,0.1337,0.1335,0.1333,0,0,0,0,0,0,0,0,0,0,0,0,0,0.1164,0.1163,0.1169,0.1169,0.117,0.1251,0.1252,0.1254,0.1353,0.1355,0.1357,0.1358,0.1338,0.1335,0.1333,0,0,0,0,0,0,0,0,0,0,0,0,0,0.12,0.1163,0.1169,0.1228,0.1234,0.1251,0.1252,0.1254,0.1353,0.1355,0.1357,0.1359,0.1338,0.1336,0.1333,0.1276,0,0,0.1325,0.1323,0,0,0,0,0,0,0,0,0.1198,0.12,0.1218,0.1224,0.1231,0.1292,0.1243,0.1255,0.1353,0.131,0.1358,0.136,0.1309,0.1309,0.1325,0.1275,0.1274,0.1324,0.1323,0.1322,0.1321,0,0,0,0,0,0,0,0.1195,0.1198,0.1204,0.1219,0.1227,0.1273,0.128,0.1247,0.1297,0.1314,0.1321,0.1326,0.1313,0.1327,0.1325,0.1274,0.1324,0.1322,0.132,0.1319,0.138,0.1383,0,0,0,0,0,0,0.1174,0.1194,0.1201,0.1206,0.1216,0.1271,0.1279,0.1272,0.13,0.1307,0.1324,0.133,0.1331,0.1328,0.1324,0.1359,0.1322,0.1319,0.1318,0.1377,0.1381,0.1384,0,0,0,0,0,0,0.1173,0.1173,0.1198,0.1202,0.1208,0.1268,0.126,0.1273,0.1329,0.1308,0.1314,0.1371,0.1333,0.1328,0.1361,0.1355,0.1318,0.1315,0.1373,0.1378,0.1382,0.1362,0,0,0,0,0,0,0.1173,0.1172,0.1191,0.1199,0.1206,0.1245,0.1258,0.1273,0.1325,0.1335,0.1349,0.1348,0.1334,0.1366,0.1359,0.135,0.1313,0.1369,0.1375,0.1381,0.1358,0.1365,0.1371,0,0,0,0,0,0.1172,0.1188,0.1191,0.1194,0.1219,0.1246,0.1257,0.1308,0.1325,0.1363,0.1388,0.135,0.14,0.1366,0.1357,0.1347,0.1366,0.1373,0.138,0.1356,0.1364,0.1371,0,0,0,0,0,0,0.1198,0.1199,0.1204,0.1219,0.1246,0.1264,0.13,0.1323,0.1373,0.1395,0.1373,0.1374,0.1357,0.1399,0.1362,0.1398,0.1382,0.1388,0.1367,0.1374,0.1381,0.14,0.1311,0,0,0,0,0,0.1205,0.1221,0.1224,0.1244,0.125,0.1277,0.1303,0.1341,0.1368,0.1396,0.1393,0.1411,0.1374,0.1419,0.1374,0.1427,0.1433,0.1431,0.1437,0.1442,0.1462,0.1475,0.1482,0.1408,0.1408,0.1408,0,0,0.1212,0.1223,0.1229,0.1252,0.1269,0.126,0.1301,0.1354,0.1361,0.1377,0.1397,0.1377,0.1374,0.1388,0.1398,0.1443,0.147,0.1451,0.1454,0.1472,0.1483,0.149,0.1495,0.1413,0.1412,0.1411,0,0,0.1203,0.1245,0.1233,0.1242,0.128,0.1306,0.1323,0.1355,0.1396,0.1422,0.1398,0.1428,0.1415,0.1427,0.1422,0.1463,0.1434,0.1456,0.1573,0.1585,0.1589,0.1594,0.1603,0.1608,0.1543,0.1543,0.1543,0,0.1206,0.1195,0.1242,0.1214,0.123,0.1312,0.1299,0.1334,0.1383,0.142,0.1438,0.1427,0.1424,0.1431,0.1475,0.1464,0.1479,0.1522,0.1586,0.1591,0.1595,0.1603,0.1609,0.1543,0.1543,0.1543,0.1543,0,0.1146,0.1156,0.1155,0.1142,0.1175,0.1202,0.1236,0.1306,0.1368,0.1393,0.1419,0.1442,0.1474,0.1469,0.149,0.1533,0.1529,0.151,0.1545,0.16,0.1607,0.1613,0.1543,0.1543,0.1543,0.1543,0,0,0.1084,0.1107,0.1105,0.1115,0.1155,0.1183,0.1222,0.129,0.1343,0.1396,0.1442,0.1442,0.1502,0.1511,0.1536,0.1612,0.1656,0.1631,0.1631,0.1605,0.1692,0.1627,0.1627,0.1648,0.1649,0.165,0.1678,0,0.1023,0.0987,0.1023,0.1025,0.1016,0.1122,0.1149,0.1233,0.1326,0.1394,0.1457,0.1468,0.1499,0.1545,0.1614,0.1612,0.1676,0.1651,0.1677,0.1678,0.1583,0.1634,0.1655,0.1683,0.1684,0.1685,0.1686,0,0.0928,0.0937,0.0922,0.1004,0.1011,0.1039,0.1184,0.123,0.1345,0.1406,0.1486,0.1508,0.1603,0.1616,0.1691,0.168,0.1706,0.172,0.172,0.1675,0.1625,0.1627,0.1697,0.1696,0.1695,0.1695,0.1694,0,0.0865,0.0877,0.09,0.0904,0.0982,0.1047,0.1129,0.1248,0.1319,0.1435,0.1492,0.156,0.1625,0.1658,0.1731,0.1718,0.1799,0.1762,0.1716,0.1711,0.1763,0.1758,0.1805,0.1805,0.1804,0.1804,0.1804,0,0.0792,0.0801,0.0887,0.0884,0.0946,0.1028,0.1137,0.1221,0.1348,0.1422,0.1512,0.1568,0.1649,0.1711,0.1739,0.1762,0.1802,0.174,0.172,0.1757,0.1752,0.1766,0.1761,0.1805,0.1805,0.1805,0.1805,0,0.071,0.0756,0.0778,0.0876,0.0912,0.0972,0.1125,0.1208,0.1332,0.1439,0.1472,0.1594,0.1677,0.174,0.1804,0.1775,0.1786,0.178,0.1835,0.1814,0.1683,0.1677,0.1709,0.1707,0.1706,0.1704,0.1703,0,0.0663,0.0663,0.0752,0.0789,0.0844,0.0949,0.1024,0.1173,0.1246,0.1442,0.1464,0.1603,0.1674,0.1701,0.1772,0.1795,0.1786,0.1766,0.1716,0.1699,0.1676,0.1673,0.167,0.1701,0.17,0.17,0.1699,0,0.0564,0.0611,0.0636,0.071,0.0795,0.0874,0.0987,0.1026,0.1215,0.1331,0.143,0.1505,0.1605,0.1654,0.1703,0.1712,0.1758,0.1748,0.175,0.1704,0.1689,0.1667,0.1666,0.1694,0.1694,0.1695,0.1695,0,0.0499,0.0494,0.0549,0.0624,0.0713,0.0784,0.0859,0.0963,0.1054,0.1267,0.1297,0.1461,0.1585,0.1614,0.165,0.1669,0.1641,0.1573,0.1584,0.1591,0.1545,0.1508,0.1453,0,0,0,0,0,0.043,0.0426,0.0465,0.054,0.0638,0.0699,0.0824,0.0912,0.108,0.112,0.1211,0.1303,0.1413,0.148,0.1478,0.1593,0.1633,0.1583,0.1555,0.1662,0.1669,0.163,0,0,0,0,0,0,0.0377,0.0396,0.0418,0.0465,0.0518,0.0616,0.07,0.082,0.0835,0.1012,0.1065,0.1214,0.1314,0.1397,0.1446,0.1471,0.1427,0.1684,0.1681,0.1659,0.1665,0.167,0.1632,0,0,0,0,0]},{"header":{"parameterUnit":"m.s-1","parameterCategory":2,"la1":30.2991,"la2":30.254,"lo1":-89.0895,"lo2":-89.0444,"dy":0.0017,"dx":0.0017,"nx":28,"ny":28,"refTime":"2023-08-03T09:00:00:Z","depth":"4","parameterNumber":3,"parameterNumberName":"V-component_of_CURRENTS"},"data":[0,0,0,0,0,0,0,0,0,0,0,0,0,0,0,0,0,0,0,0,0,0,0,0,0,0,0,0,0,0,0,0,0,0,0,0,0,0,0,0,0,0,0,0,0,0,0,0,0,0,0,0,0,0,0,0,0,0,-0.0184,-0.0184,0,-0.0224,-0.0224,-0.0225,-0.026,-0.026,-0.026,-0.0261,-0.0339,-0.0341,-0.0343,0,0,0,0,0,0,0,0,0,0,0,0,0,-0.0144,-0.0144,-0.0184,-0.0184,-0.0185,-0.0224,-0.0224,-0.0225,-0.026,-0.026,-0.026,-0.0261,-0.0338,-0.0341,-0.0343,0,0,0,0,0,0,0,0,0,0,0,0,0,-0.0171,-0.0145,-0.0184,-0.0206,-0.0208,-0.0224,-0.0224,-0.0225,-0.026,-0.026,-0.0261,-0.0261,-0.0338,-0.034,-0.0343,-0.0351,0,0,-0.0351,-0.0353,0,0,0,0,0,0,0,0,-0.017,-0.0173,-0.0202,-0.0204,-0.0207,-0.0236,-0.0239,-0.0269,-0.026,-0.0241,-0.0261,-0.0261,-0.0307,-0.0312,-0.032,-0.0355,-0.0358,-0.0352,-0.0353,-0.0354,-0.0355,0,0,0,0,0,0,0,-0.0168,-0.0171,-0.0201,-0.0203,-0.0206,-0.0216,-0.022,-0.0245,-0.0273,-0.0243,-0.0245,-0.0248,-0.0309,-0.0317,-0.0322,-0.0359,-0.0352,-0.0354,-0.0356,-0.0357,-0.0467,-0.0469,0,0,0,0,0,0,-0.016,-0.017,-0.02,-0.0202,-0.0188,-0.0216,-0.0221,-0.0227,-0.0272,-0.0279,-0.0247,-0.0249,-0.0312,-0.0319,-0.0325,-0.0409,-0.0354,-0.0357,-0.0359,-0.0466,-0.0468,-0.0469,0,0,0,0,0,0,-0.0159,-0.0162,-0.0198,-0.0186,-0.0191,-0.0216,-0.0223,-0.0228,-0.024,-0.0275,-0.0282,-0.0254,-0.0313,-0.0321,-0.0363,-0.041,-0.0358,-0.0361,-0.0465,-0.0467,-0.0468,-0.0532,0,0,0,0,0,0,-0.0157,-0.0162,-0.0165,-0.0185,-0.0191,-0.021,-0.0223,-0.0228,-0.0239,-0.0242,-0.0283,-0.029,-0.0314,-0.0359,-0.0366,-0.0413,-0.0363,-0.0463,-0.0465,-0.0468,-0.0528,-0.0535,-0.0542,0,0,0,0,0,-0.0156,-0.0168,-0.0165,-0.0169,-0.0195,-0.021,-0.0215,-0.0234,-0.0239,-0.0246,-0.0282,-0.0289,-0.038,-0.0362,-0.037,-0.0419,-0.0462,-0.0465,-0.0468,-0.0525,-0.0534,-0.0542,0,0,0,0,0,0,-0.0163,-0.0173,-0.017,-0.0187,-0.0194,-0.0216,-0.0227,-0.0232,-0.0263,-0.0271,-0.0302,-0.0312,-0.0362,-0.0376,-0.0355,-0.0456,-0.0424,-0.0428,-0.0464,-0.0473,-0.048,-0.0431,-0.0365,0,0,0,0,0,-0.0161,-0.0167,-0.0176,-0.0188,-0.0192,-0.0205,-0.0214,-0.0223,-0.025,-0.0264,-0.0298,-0.0338,-0.0379,-0.0413,-0.0437,-0.0495,-0.0474,-0.0532,-0.0539,-0.0545,-0.0509,-0.0527,-0.0531,-0.0479,-0.0479,-0.0479,0,0,-0.0173,-0.0173,-0.0181,-0.0189,-0.0198,-0.0209,-0.0213,-0.0227,-0.0241,-0.0268,-0.0314,-0.0351,-0.0392,-0.0457,-0.0483,-0.0481,-0.0554,-0.0548,-0.0554,-0.0514,-0.053,-0.0535,-0.0539,-0.0481,-0.048,-0.048,0,0,-0.0193,-0.0193,-0.0202,-0.02,-0.0203,-0.0216,-0.0216,-0.024,-0.0256,-0.0298,-0.0327,-0.0389,-0.045,-0.0502,-0.0532,-0.0588,-0.0575,-0.0608,-0.0628,-0.0648,-0.0652,-0.0654,-0.0655,-0.0657,-0.0633,-0.0633,-0.0633,0,-0.0207,-0.0194,-0.0209,-0.0207,-0.0193,-0.0217,-0.021,-0.0243,-0.0281,-0.0283,-0.0317,-0.0409,-0.047,-0.0536,-0.0581,-0.0606,-0.0596,-0.06,-0.0656,-0.0658,-0.066,-0.0659,-0.0661,-0.0636,-0.0636,-0.0635,-0.0635,0,-0.0221,-0.0202,-0.0206,-0.0205,-0.0213,-0.0201,-0.0233,-0.0254,-0.0281,-0.0304,-0.0358,-0.0448,-0.0493,-0.0558,-0.0601,-0.0658,-0.064,-0.0648,-0.0631,-0.0669,-0.0666,-0.0667,-0.0641,-0.064,-0.0639,-0.0638,0,0,-0.0249,-0.0217,-0.0212,-0.0167,-0.0185,-0.0177,-0.022,-0.0228,-0.0225,-0.0311,-0.0313,-0.0456,-0.0486,-0.0521,-0.0595,-0.0656,-0.0714,-0.0671,-0.0671,-0.0664,-0.0734,-0.07,-0.0697,-0.0732,-0.0732,-0.0732,-0.0734,0,-0.0232,-0.0178,-0.0196,-0.0152,-0.0103,-0.0133,-0.0156,-0.0181,-0.022,-0.0244,-0.0342,-0.0381,-0.0479,-0.0514,-0.0592,-0.0662,-0.0714,-0.071,-0.0702,-0.07,-0.0661,-0.0696,-0.0732,-0.0734,-0.0734,-0.0734,-0.0734,0,-0.0205,-0.0156,-0.0093,-0.003,-0.0022,-0.0032,-0.0015,-0.0041,-0.0101,-0.0134,-0.0204,-0.0265,-0.0376,-0.0449,-0.0579,-0.0568,-0.0646,-0.0713,-0.0714,-0.0645,-0.0666,-0.0684,-0.0735,-0.0735,-0.0735,-0.0735,-0.0735,0,-0.0111,-0.0066,0.0011,0.0032,0.0052,0.0062,0.0055,0.0009,0.0009,-0.0053,-0.0066,-0.0179,-0.0241,-0.0347,-0.0514,-0.0538,-0.0632,-0.0676,-0.0709,-0.0707,-0.0707,-0.0703,-0.074,-0.074,-0.074,-0.074,-0.074,0,-0.0025,0.0041,0.0071,0.0123,0.0195,0.0167,0.0209,0.0173,0.0133,0.0132,0.0007,-0.0028,-0.0221,-0.0314,-0.0452,-0.0571,-0.0578,-0.069,-0.0702,-0.0738,-0.0738,-0.0708,-0.0705,-0.074,-0.074,-0.074,-0.074,0,0.0072,0.0102,0.0194,0.0233,0.0253,0.0299,0.031,0.0324,0.0275,0.0266,0.0249,0.0097,-0.0039,-0.021,-0.0388,-0.0484,-0.0602,-0.0641,-0.0639,-0.0654,-0.0677,-0.0677,-0.0663,-0.0661,-0.066,-0.0659,-0.0659,0,0.013,0.0195,0.0276,0.0316,0.0333,0.0396,0.0425,0.0403,0.04,0.0335,0.0325,0.02,0.0081,-0.0117,-0.0315,-0.0517,-0.057,-0.0602,-0.0675,-0.0654,-0.0668,-0.0669,-0.0671,-0.0657,-0.0657,-0.0656,-0.0656,0,0.0217,0.0237,0.0295,0.0392,0.0442,0.0504,0.0537,0.0558,0.0512,0.0487,0.0401,0.0266,0.0115,-0.0096,-0.0248,-0.0409,-0.0564,-0.0593,-0.0598,-0.0666,-0.0647,-0.0662,-0.0665,-0.0653,-0.0653,-0.0653,-0.0654,0,0.0247,0.0294,0.0355,0.0435,0.0505,0.0554,0.0589,0.0581,0.0588,0.0506,0.0488,0.0301,0.0188,-0.0038,-0.0179,-0.0325,-0.0388,-0.0434,-0.0448,-0.0454,-0.0412,-0.0359,-0.027,0,0,0,0,0,0.0267,0.0311,0.0385,0.046,0.0527,0.0564,0.0619,0.0631,0.062,0.0577,0.053,0.0387,0.0149,0.0033,-0.0107,-0.0185,-0.0421,-0.0353,-0.0482,-0.0632,-0.0636,-0.0622,0,0,0,0,0,0,0.0275,0.0341,0.0383,0.0458,0.0502,0.0571,0.0607,0.0608,0.0581,0.055,0.0423,0.0363,0.0125,0.0221,-0.0112,-0.0159,-0.0254,-0.0469,-0.0471,-0.063,-0.0634,-0.0637,-0.0624,0,0,0,0,0]}]]